Time,TemperatureF,DewpointF,PressureIn,WindDirection,WindDirectionDegrees,WindSpeedMPH,WindSpeedGustMPH,Humidity,HourlyPrecipIn,Conditions,Clouds,dailyrainin,SoftwareType,DateUTC
2013-01-17 00:00:00,35.5,25.3,30.36,North,355,0.0,0.0,66,0.00,,,0.00,Wunderground v.1.15,2013-01-17 06:00:00,
2013-01-17 00:09:00,35.7,25.4,30.36,North,356,0.0,0.0,66,0.00,,,0.00,Wunderground v.1.15,2013-01-17 06:09:00,
2013-01-17 00:15:00,35.9,25.6,30.37,North,355,0.0,0.0,66,0.00,,,0.00,Wunderground v.1.15,2013-01-17 06:15:00,
2013-01-17 00:24:00,36.2,25.9,30.37,North,355,0.0,0.0,66,0.00,,,0.00,Wunderground v.1.15,2013-01-17 06:24:00,
2013-01-17 00:30:00,36.3,26.0,30.37,North,355,0.0,1.0,66,0.00,,,0.00,Wunderground v.1.15,2013-01-17 06:30:00,
2013-01-17 00:39:00,36.8,25.8,30.37,North,355,1.0,1.0,64,0.00,,,0.00,Wunderground v.1.15,2013-01-17 06:39:00,
2013-01-17 00:50:00,37.2,25.8,30.37,North,355,0.0,1.0,63,0.00,,,0.00,Wunderground v.1.15,2013-01-17 06:50:00,
2013-01-17 00:59:00,37.2,25.4,30.37,North,355,1.0,1.0,62,0.00,,,0.00,Wunderground v.1.15,2013-01-17 06:59:00,
2013-01-17 01:05:00,37.3,25.5,30.38,North,355,1.0,1.0,62,0.00,,,0.00,Wunderground v.1.15,2013-01-17 07:05:00,
2013-01-17 01:14:00,37.6,25.4,30.38,North,355,0.0,0.0,61,0.00,,,0.00,Wunderground v.1.15,2013-01-17 07:14:00,
2013-01-17 01:20:00,37.7,25.1,30.38,North,355,0.0,0.0,60,0.00,,,0.00,Wunderground v.1.15,2013-01-17 07:20:00,
2013-01-17 01:29:00,37.8,25.5,30.38,North,355,0.0,0.0,61,0.00,,,0.00,Wunderground v.1.15,2013-01-17 07:29:00,
2013-01-17 01:40:00,37.6,25.0,30.38,North,353,0.0,0.0,60,0.00,,,0.00,Wunderground v.1.15,2013-01-17 07:40:00,
2013-01-17 01:49:00,37.8,25.1,30.38,North,353,0.0,0.0,60,0.00,,,0.00,Wunderground v.1.15,2013-01-17 07:49:00,
2013-01-17 02:00:00,37.7,25.5,30.38,North,352,0.0,0.0,61,0.00,,,0.00,Wunderground v.1.15,2013-01-17 08:00:00,
2013-01-17 02:09:00,37.8,24.7,30.38,North,353,0.0,0.0,59,0.00,,,0.00,Wunderground v.1.15,2013-01-17 08:09:00,
2013-01-17 02:15:00,37.5,24.9,30.38,North,352,0.0,0.0,60,0.00,,,0.00,Wunderground v.1.15,2013-01-17 08:15:00,
2013-01-17 02:24:00,37.3,25.1,30.38,North,353,0.0,1.0,61,0.00,,,0.00,Wunderground v.1.15,2013-01-17 08:24:00,
2013-01-17 02:35:00,38.6,26.7,30.38,NW,310,1.0,2.0,62,0.00,,,0.00,Wunderground v.1.15,2013-01-17 08:35:00,
2013-01-17 02:44:00,39.9,27.1,30.38,NNW,333,1.0,1.0,60,0.00,,,0.00,Wunderground v.1.15,2013-01-17 08:44:00,
2013-01-17 02:50:00,40.5,27.3,30.38,North,6,2.0,2.0,59,0.00,,,0.00,Wunderground v.1.15,2013-01-17 08:50:00,
2013-01-17 02:59:00,41.0,27.8,30.39,WNW,294,2.0,2.0,59,0.00,,,0.00,Wunderground v.1.15,2013-01-17 08:59:00,
2013-01-17 03:05:00,40.9,27.7,30.39,NNW,328,1.0,2.0,59,0.00,,,0.00,Wunderground v.1.15,2013-01-17 09:05:00,
2013-01-17 03:14:00,41.2,28.4,30.39,NW,325,2.0,3.0,60,0.00,,,0.00,Wunderground v.1.15,2013-01-17 09:14:00,
2013-01-17 03:25:00,41.2,28.8,30.39,NE,47,1.0,2.0,61,0.00,,,0.00,Wunderground v.1.15,2013-01-17 09:25:00,
2013-01-17 03:34:00,41.1,28.7,30.39,NNE,25,2.0,2.0,61,0.00,,,0.00,Wunderground v.1.15,2013-01-17 09:34:00,
2013-01-17 03:40:00,40.9,28.5,30.39,NW,316,1.0,1.0,61,0.00,,,0.00,Wunderground v.1.15,2013-01-17 09:40:00,
2013-01-17 03:49:00,40.5,28.9,30.39,NW,316,1.0,1.0,63,0.00,,,0.00,Wunderground v.1.15,2013-01-17 09:49:00,
2013-01-17 03:55:00,40.2,28.6,30.39,WNW,303,1.0,3.0,63,0.00,,,0.00,Wunderground v.1.15,2013-01-17 09:55:00,
2013-01-17 04:05:00,39.3,28.1,30.39,NW,311,1.0,1.0,64,0.00,,,0.00,Wunderground v.1.15,2013-01-17 10:05:00,
2013-01-17 04:14:00,38.8,28.4,30.40,WNW,298,1.0,2.0,66,0.00,,,0.00,Wunderground v.1.15,2013-01-17 10:14:00,
2013-01-17 04:25:00,38.2,28.2,30.40,NW,308,1.0,1.0,67,0.00,,,0.00,Wunderground v.1.15,2013-01-17 10:25:00,
2013-01-17 04:34:00,37.6,28.3,30.40,NW,310,1.0,1.0,69,0.00,,,0.00,Wunderground v.1.15,2013-01-17 10:34:00,
2013-01-17 04:40:00,37.6,28.3,30.40,NW,308,1.0,2.0,69,0.00,,,0.00,Wunderground v.1.15,2013-01-17 10:40:00,
2013-01-17 04:45:00,37.7,28.8,30.40,WNW,285,1.0,2.0,70,0.00,,,0.00,Wunderground v.1.15,2013-01-17 10:45:00,
2013-01-17 04:54:00,38.0,29.1,30.40,North,354,1.0,1.0,70,0.00,,,0.00,Wunderground v.1.15,2013-01-17 10:54:00,
2013-01-17 05:00:00,38.2,29.3,30.40,NNW,342,1.0,1.0,70,0.00,,,0.00,Wunderground v.1.15,2013-01-17 11:00:00,
2013-01-17 05:09:00,38.2,29.3,30.40,NNW,336,0.0,0.0,70,0.00,,,0.00,Wunderground v.1.15,2013-01-17 11:09:00,
2013-01-17 05:20:00,38.2,29.6,30.40,NE,49,0.0,1.0,71,0.00,,,0.00,Wunderground v.1.15,2013-01-17 11:20:00,
2013-01-17 05:29:00,38.1,29.5,30.41,NE,49,0.0,1.0,71,0.00,,,0.00,Wunderground v.1.15,2013-01-17 11:29:00,
2013-01-17 05:35:00,37.9,29.7,30.41,NE,49,0.0,1.0,72,0.00,,,0.00,Wunderground v.1.15,2013-01-17 11:35:00,
2013-01-17 05:44:00,37.9,30.0,30.42,NNE,27,0.0,0.0,73,0.00,,,0.00,Wunderground v.1.15,2013-01-17 11:44:00,
2013-01-17 05:55:00,38.2,30.3,30.43,NW,319,0.0,1.0,73,0.00,,,0.00,Wunderground v.1.15,2013-01-17 11:55:00,
2013-01-17 06:04:00,38.4,30.8,30.42,North,352,0.0,2.0,74,0.00,,,0.00,Wunderground v.1.15,2013-01-17 12:04:00,
2013-01-17 06:15:00,39.4,31.5,30.42,NW,325,1.0,1.0,73,0.00,,,0.00,Wunderground v.1.15,2013-01-17 12:15:00,
2013-01-17 06:24:00,40.4,32.1,30.43,West,269,1.0,3.0,72,0.00,,,0.00,Wunderground v.1.15,2013-01-17 12:24:00,
2013-01-17 06:30:00,41.5,32.8,30.42,NNW,328,2.0,2.0,71,0.00,,,0.00,Wunderground v.1.15,2013-01-17 12:30:00,
2013-01-17 06:40:00,42.1,32.7,30.43,NW,314,1.0,1.0,69,0.00,,,0.00,Wunderground v.1.15,2013-01-17 12:40:00,
2013-01-17 06:50:00,42.3,32.8,30.43,NW,322,1.0,1.0,69,0.00,,,0.00,Wunderground v.1.15,2013-01-17 12:50:00,
2013-01-17 06:59:00,42.0,32.6,30.44,NW,319,1.0,2.0,69,0.00,,,0.00,Wunderground v.1.15,2013-01-17 12:59:00,
2013-01-17 07:05:00,42.0,32.9,30.44,North,356,1.0,2.0,70,0.00,,,0.00,Wunderground v.1.15,2013-01-17 13:05:00,
2013-01-17 07:14:00,41.7,32.6,30.44,NW,325,2.0,2.0,70,0.00,,,0.00,Wunderground v.1.15,2013-01-17 13:14:00,
2013-01-17 07:20:00,41.5,32.4,30.44,WSW,255,2.0,2.0,70,0.00,,,0.00,Wunderground v.1.15,2013-01-17 13:20:00,
2013-01-17 07:29:00,41.3,32.6,30.44,NNE,18,2.0,2.0,71,0.00,,,0.00,Wunderground v.1.15,2013-01-17 13:29:00,
2013-01-17 07:40:00,41.4,32.7,30.44,WNW,295,2.0,2.0,71,0.00,,,0.00,Wunderground v.1.15,2013-01-17 13:40:00,
2013-01-17 07:49:00,41.4,32.7,30.45,NW,309,1.0,1.0,71,0.00,,,0.00,Wunderground v.1.15,2013-01-17 13:49:00,
2013-01-17 08:00:00,41.7,33.0,30.45,NNW,328,1.0,1.0,71,0.00,,,0.00,Wunderground v.1.15,2013-01-17 14:00:00,
2013-01-17 08:09:00,41.6,32.9,30.45,NW,308,0.0,0.0,71,0.00,,,0.00,Wunderground v.1.15,2013-01-17 14:09:00,
2013-01-17 08:20:00,41.6,33.2,30.46,West,264,0.0,1.0,72,0.00,,,0.00,Wunderground v.1.15,2013-01-17 14:20:00,
2013-01-17 08:29:00,42.3,33.6,30.47,NNW,332,1.0,1.0,71,0.00,,,0.00,Wunderground v.1.15,2013-01-17 14:29:00,
2013-01-17 08:35:00,42.8,33.7,30.47,West,268,1.0,3.0,70,0.00,,,0.00,Wunderground v.1.15,2013-01-17 14:35:00,
2013-01-17 08:45:00,43.7,33.8,30.47,WNW,301,2.0,3.0,68,0.00,,,0.00,Wunderground v.1.15,2013-01-17 14:45:00,
2013-01-17 08:55:00,44.8,34.5,30.48,NW,304,2.0,3.0,67,0.00,,,0.00,Wunderground v.1.15,2013-01-17 14:55:00,
2013-01-17 09:04:00,46.3,35.2,30.49,WNW,285,2.0,3.0,65,0.00,,,0.00,Wunderground v.1.15,2013-01-17 15:04:00,
2013-01-17 09:15:00,47.9,35.9,30.49,North,349,2.0,3.0,63,0.00,,,0.00,Wunderground v.1.15,2013-01-17 15:15:00,
2013-01-17 09:24:00,49.2,36.3,30.49,ENE,71,2.0,2.0,61,0.00,,,0.00,Wunderground v.1.15,2013-01-17 15:24:00,
2013-01-17 09:35:00,50.4,36.6,30.50,NE,50,2.0,5.0,59,0.00,,,0.00,Wunderground v.1.15,2013-01-17 15:35:00,
2013-01-17 09:44:00,51.6,37.7,30.51,NE,46,2.0,2.0,59,0.00,,,0.00,Wunderground v.1.15,2013-01-17 15:44:00,
2013-01-17 09:55:00,52.9,38.1,30.51,NNE,29,1.0,2.0,57,0.00,,,0.00,Wunderground v.1.15,2013-01-17 15:55:00,
2013-01-17 10:04:00,54.2,38.4,30.52,NE,49,2.0,5.0,55,0.00,,,0.00,Wunderground v.1.15,2013-01-17 16:04:00,
2013-01-17 10:10:00,54.9,38.6,30.51,NW,314,2.0,2.0,54,0.00,,,0.00,Wunderground v.1.15,2013-01-17 16:10:00,
2013-01-17 10:19:00,56.0,39.1,30.52,NW,316,2.0,3.0,53,0.00,,,0.00,Wunderground v.1.15,2013-01-17 16:19:00,
2013-01-17 10:30:00,57.5,39.0,30.52,NE,56,3.0,3.0,50,0.00,,,0.00,Wunderground v.1.15,2013-01-17 16:30:00,
2013-01-17 10:39:00,58.3,39.2,30.52,NNE,25,3.0,3.0,49,0.00,,,0.00,Wunderground v.1.15,2013-01-17 16:39:00,
2013-01-17 10:45:00,58.7,38.5,30.51,NE,38,3.0,6.0,47,0.00,,,0.00,Wunderground v.1.15,2013-01-17 16:45:00,
2013-01-17 10:54:00,59.0,38.2,30.51,NE,56,3.0,5.0,46,0.00,,,0.00,Wunderground v.1.15,2013-01-17 16:54:00,
2013-01-17 11:00:00,59.2,39.0,30.51,NNE,24,3.0,6.0,47,0.00,,,0.00,Wunderground v.1.15,2013-01-17 17:00:00,
2013-01-17 11:10:00,59.5,38.1,30.51,North,11,4.0,4.0,45,0.00,,,0.00,Wunderground v.1.15,2013-01-17 17:10:00,
2013-01-17 11:19:00,60.0,38.6,30.51,NE,46,3.0,3.0,45,0.00,,,0.00,Wunderground v.1.15,2013-01-17 17:19:00,
2013-01-17 11:25:00,60.3,38.9,30.51,NNE,13,2.0,4.0,45,0.00,,,0.00,Wunderground v.1.15,2013-01-17 17:25:00,
2013-01-17 11:35:00,60.8,38.1,30.50,NE,39,3.0,3.0,43,0.00,,,0.00,Wunderground v.1.15,2013-01-17 17:35:00,
2013-01-17 11:45:00,60.8,38.1,30.50,NNE,27,4.0,4.0,43,0.00,,,0.00,Wunderground v.1.15,2013-01-17 17:45:00,
2013-01-17 11:54:00,61.2,38.5,30.50,ESE,103,3.0,4.0,43,0.00,,,0.00,Wunderground v.1.15,2013-01-17 17:54:00,
2013-01-17 12:00:00,61.4,38.7,30.50,NE,36,3.0,3.0,43,0.00,,,0.00,Wunderground v.1.15,2013-01-17 18:00:00,
2013-01-17 12:09:00,61.8,38.4,30.49,NW,316,3.0,3.0,42,0.00,,,0.00,Wunderground v.1.15,2013-01-17 18:09:00,
2013-01-17 12:20:00,62.4,39.0,30.49,NE,56,3.0,4.0,42,0.00,,,0.00,Wunderground v.1.15,2013-01-17 18:20:00,
2013-01-17 12:29:00,62.5,39.1,30.48,NNE,18,3.0,3.0,42,0.00,,,0.00,Wunderground v.1.15,2013-01-17 18:29:00,
2013-01-17 12:35:00,63.0,39.5,30.48,North,355,2.0,3.0,42,0.00,,,0.00,Wunderground v.1.15,2013-01-17 18:35:00,
2013-01-17 12:44:00,63.4,38.6,30.47,ENE,68,3.0,3.0,40,0.00,,,0.00,Wunderground v.1.15,2013-01-17 18:44:00,
2013-01-17 12:55:00,63.8,37.7,30.47,NW,316,3.0,5.0,38,0.00,,,0.00,Wunderground v.1.15,2013-01-17 18:55:00,
2013-01-17 13:04:00,64.2,38.0,30.46,ENE,67,4.0,4.0,38,0.00,,,0.00,Wunderground v.1.15,2013-01-17 19:04:00,
2013-01-17 13:15:00,64.4,38.2,30.45,NW,304,3.0,6.0,38,0.00,,,0.00,Wunderground v.1.15,2013-01-17 19:15:00,
2013-01-17 13:24:00,64.5,38.3,30.45,North,3,4.0,4.0,38,0.00,,,0.00,Wunderground v.1.15,2013-01-17 19:24:00,
2013-01-17 13:30:00,65.0,37.4,30.45,North,9,4.0,6.0,36,0.00,,,0.00,Wunderground v.1.15,2013-01-17 19:30:00,
2013-01-17 13:39:00,65.6,37.9,30.44,NE,41,2.0,5.0,36,0.00,,,0.00,Wunderground v.1.15,2013-01-17 19:39:00,
2013-01-17 13:50:00,65.2,37.6,30.44,NW,314,3.0,3.0,36,0.00,,,0.00,Wunderground v.1.15,2013-01-17 19:50:00,
2013-01-17 13:59:00,65.8,38.8,30.43,NNW,328,2.0,3.0,37,0.00,,,0.00,Wunderground v.1.15,2013-01-17 19:59:00,
2013-01-17 14:10:00,66.0,37.5,30.43,NW,323,2.0,2.0,35,0.00,,,0.00,Wunderground v.1.15,2013-01-17 20:10:00,
2013-01-17 14:19:00,65.7,37.3,30.43,NNE,24,4.0,4.0,35,0.00,,,0.00,Wunderground v.1.15,2013-01-17 20:19:00,
2013-01-17 14:25:00,66.2,37.7,30.43,NW,311,3.0,4.0,35,0.00,,,0.00,Wunderground v.1.15,2013-01-17 20:25:00,
2013-01-17 14:34:00,66.2,37.7,30.43,NE,39,3.0,4.0,35,0.00,,,0.00,Wunderground v.1.15,2013-01-17 20:34:00,
2013-01-17 14:44:00,66.3,37.8,30.43,NE,50,3.0,6.0,35,0.00,,,0.00,Wunderground v.1.15,2013-01-17 20:44:00,
2013-01-17 14:50:00,66.6,37.3,30.43,NW,310,3.0,3.0,34,0.00,,,0.00,Wunderground v.1.15,2013-01-17 20:50:00,
2013-01-17 14:59:00,66.5,37.2,30.43,NNW,333,4.0,4.0,34,0.00,,,0.00,Wunderground v.1.15,2013-01-17 20:59:00,
2013-01-17 15:05:00,66.4,36.4,30.43,NE,41,3.0,4.0,33,0.00,,,0.00,Wunderground v.1.15,2013-01-17 21:05:00,
2013-01-17 15:14:00,66.5,36.5,30.43,NE,44,3.0,3.0,33,0.00,,,0.00,Wunderground v.1.15,2013-01-17 21:14:00,
2013-01-17 15:20:00,66.5,37.2,30.43,ESE,116,2.0,2.0,34,0.00,,,0.00,Wunderground v.1.15,2013-01-17 21:20:00,
2013-01-17 15:29:00,66.8,36.8,30.43,ENE,65,2.0,3.0,33,0.00,,,0.00,Wunderground v.1.15,2013-01-17 21:29:00,
2013-01-17 15:40:00,66.6,37.3,30.44,ESE,103,3.0,3.0,34,0.00,,,0.00,Wunderground v.1.15,2013-01-17 21:40:00,
2013-01-17 15:49:00,66.8,37.5,30.44,North,352,2.0,5.0,34,0.00,,,0.00,Wunderground v.1.15,2013-01-17 21:49:00,
2013-01-17 15:55:00,66.6,37.3,30.44,ENE,63,2.0,5.0,34,0.00,,,0.00,Wunderground v.1.15,2013-01-17 21:55:00,
2013-01-17 16:05:00,66.3,37.1,30.44,NNE,23,2.0,2.0,34,0.00,,,0.00,Wunderground v.1.15,2013-01-17 22:05:00,
2013-01-17 16:14:00,66.1,37.6,30.45,ENE,78,2.0,3.0,35,0.00,,,0.00,Wunderground v.1.15,2013-01-17 22:14:00,
2013-01-17 16:20:00,66.3,37.8,30.45,ENE,69,1.0,1.0,35,0.00,,,0.00,Wunderground v.1.15,2013-01-17 22:20:00,
2013-01-17 16:29:00,66.2,37.7,30.45,ESE,115,2.0,2.0,35,0.00,,,0.00,Wunderground v.1.15,2013-01-17 22:29:00,
2013-01-17 16:40:00,65.9,37.5,30.45,NNE,29,2.0,4.0,35,0.00,,,0.00,Wunderground v.1.15,2013-01-17 22:40:00,
2013-01-17 16:49:00,65.6,37.2,30.45,NE,47,2.0,2.0,35,0.00,,,0.00,Wunderground v.1.15,2013-01-17 22:49:00,
2013-01-17 17:00:00,65.2,37.6,30.45,East,84,2.0,2.0,36,0.00,,,0.00,Wunderground v.1.15,2013-01-17 23:00:00,
2013-01-17 17:09:00,64.9,37.3,30.46,NNE,14,1.0,1.0,36,0.00,,,0.00,Wunderground v.1.15,2013-01-17 23:09:00,
2013-01-17 17:20:00,64.9,38.0,30.46,North,349,0.0,1.0,37,0.00,,,0.00,Wunderground v.1.15,2013-01-17 23:20:00,
2013-01-17 17:29:00,64.2,38.7,30.46,North,358,0.0,0.0,39,0.00,,,0.00,Wunderground v.1.15,2013-01-17 23:29:00,
2013-01-17 17:40:00,63.1,38.4,30.46,North,8,0.0,0.0,40,0.00,,,0.00,Wunderground v.1.15,2013-01-17 23:40:00,
2013-01-17 17:49:00,61.4,38.7,30.46,North,8,0.0,0.0,43,0.00,,,0.00,Wunderground v.1.15,2013-01-17 23:49:00,
2013-01-17 17:55:00,60.3,38.3,30.47,North,9,0.0,0.0,44,0.00,,,0.00,Wunderground v.1.15,2013-01-17 23:55:00,
2013-01-17 18:05:00,58.5,39.4,30.47,North,9,0.0,0.0,49,0.00,,,0.00,Wunderground v.1.15,2013-01-18 00:05:00,
2013-01-17 18:14:00,56.4,39.0,30.47,North,9,0.0,0.0,52,0.00,,,0.00,Wunderground v.1.15,2013-01-18 00:14:00,
2013-01-17 18:20:00,55.4,38.5,30.47,North,9,0.0,0.0,53,0.00,,,0.00,Wunderground v.1.15,2013-01-18 00:20:00,
2013-01-17 18:29:00,54.0,38.6,30.48,North,9,0.0,0.0,56,0.00,,,0.00,Wunderground v.1.15,2013-01-18 00:29:00,
2013-01-17 18:35:00,53.5,38.2,30.48,North,8,0.0,0.0,56,0.00,,,0.00,Wunderground v.1.15,2013-01-18 00:35:00,
2013-01-17 18:44:00,52.6,38.2,30.48,North,9,0.0,0.0,58,0.00,,,0.00,Wunderground v.1.15,2013-01-18 00:44:00,
2013-01-17 18:54:00,52.0,38.1,30.48,North,8,0.0,0.0,59,0.00,,,0.00,Wunderground v.1.15,2013-01-18 00:54:00,
2013-01-17 19:00:00,51.8,38.3,30.48,North,9,0.0,0.0,60,0.00,,,0.00,Wunderground v.1.15,2013-01-18 01:00:00,
2013-01-17 19:09:00,51.1,38.1,30.49,North,9,0.0,0.0,61,0.00,,,0.00,Wunderground v.1.15,2013-01-18 01:09:00,
2013-01-17 19:15:00,51.0,38.0,30.49,North,8,0.0,0.0,61,0.00,,,0.00,Wunderground v.1.15,2013-01-18 01:15:00,
2013-01-17 19:24:00,51.1,38.1,30.49,North,8,0.0,0.0,61,0.00,,,0.00,Wunderground v.1.15,2013-01-18 01:24:00,
2013-01-17 19:30:00,51.0,38.0,30.49,North,9,0.0,0.0,61,0.00,,,0.00,Wunderground v.1.15,2013-01-18 01:30:00,
2013-01-17 19:39:00,50.9,37.9,30.49,North,9,0.0,0.0,61,0.00,,,0.00,Wunderground v.1.15,2013-01-18 01:39:00,
2013-01-17 19:49:00,51.3,37.4,30.50,North,9,0.0,0.0,59,0.00,,,0.00,Wunderground v.1.15,2013-01-18 01:49:00,
2013-01-17 19:55:00,51.6,37.7,30.50,North,9,0.0,0.0,59,0.00,,,0.00,Wunderground v.1.15,2013-01-18 01:55:00,
2013-01-17 20:04:00,51.5,38.1,30.50,North,9,0.0,1.0,60,0.00,,,0.00,Wunderground v.1.15,2013-01-18 02:04:00,
2013-01-17 20:10:00,51.4,38.0,30.50,North,9,0.0,0.0,60,0.00,,,0.00,Wunderground v.1.15,2013-01-18 02:10:00,
2013-01-17 20:19:00,51.0,38.0,30.50,North,8,0.0,0.0,61,0.00,,,0.00,Wunderground v.1.15,2013-01-18 02:19:00,
2013-01-17 20:30:00,50.7,37.7,30.50,North,9,0.0,0.0,61,0.00,,,0.00,Wunderground v.1.15,2013-01-18 02:30:00,
2013-01-17 20:39:00,50.6,38.1,30.50,North,9,0.0,0.0,62,0.00,,,0.00,Wunderground v.1.15,2013-01-18 02:39:00,
2013-01-17 20:50:00,50.2,37.7,30.51,North,7,0.0,0.0,62,0.00,,,0.00,Wunderground v.1.15,2013-01-18 02:50:00,
2013-01-17 20:59:00,50.0,37.5,30.51,NE,36,0.0,0.0,62,0.00,,,0.00,Wunderground v.1.15,2013-01-18 02:59:00,
2013-01-17 21:05:00,50.4,37.9,30.51,NNE,13,1.0,1.0,62,0.00,,,0.00,Wunderground v.1.15,2013-01-18 03:05:00,
2013-01-17 21:14:00,50.2,37.3,30.51,NNE,23,0.0,0.0,61,0.00,,,0.00,Wunderground v.1.15,2013-01-18 03:14:00,
2013-01-17 21:25:00,50.1,37.6,30.51,NNE,25,0.0,0.0,62,0.00,,,0.00,Wunderground v.1.15,2013-01-18 03:25:00,
2013-01-17 21:34:00,49.8,37.3,30.51,NNE,18,0.0,1.0,62,0.00,,,0.00,Wunderground v.1.15,2013-01-18 03:34:00,
2013-01-17 21:40:00,49.7,37.6,30.51,NNE,18,0.0,0.0,63,0.00,,,0.00,Wunderground v.1.15,2013-01-18 03:40:00,
2013-01-17 21:49:00,49.2,37.5,30.51,NNE,18,0.0,0.0,64,0.00,,,0.00,Wunderground v.1.15,2013-01-18 03:49:00,
2013-01-17 21:55:00,48.8,37.6,30.52,NNE,18,0.0,0.0,65,0.00,,,0.00,Wunderground v.1.15,2013-01-18 03:55:00,
2013-01-17 22:04:00,48.3,37.5,30.52,NNE,18,0.0,0.0,66,0.00,,,0.00,Wunderground v.1.15,2013-01-18 04:04:00,
2013-01-17 22:15:00,48.0,37.6,30.52,NNE,18,0.0,0.0,67,0.00,,,0.00,Wunderground v.1.15,2013-01-18 04:15:00,
2013-01-17 22:24:00,48.3,37.1,30.52,NNE,18,0.0,0.0,65,0.00,,,0.00,Wunderground v.1.15,2013-01-18 04:24:00,
2013-01-17 22:30:00,48.5,37.3,30.52,NNE,18,0.0,0.0,65,0.00,,,0.00,Wunderground v.1.15,2013-01-18 04:30:00,
2013-01-17 22:39:00,49.1,37.4,30.52,East,89,1.0,1.0,64,0.00,,,0.00,Wunderground v.1.15,2013-01-18 04:39:00,
2013-01-17 22:45:00,49.0,37.3,30.52,East,89,1.0,1.0,64,0.00,,,0.00,Wunderground v.1.15,2013-01-18 04:45:00,
2013-01-17 22:54:00,48.2,37.0,30.52,East,89,0.0,1.0,65,0.00,,,0.00,Wunderground v.1.15,2013-01-18 04:54:00,
2013-01-17 23:05:00,47.1,37.1,30.53,East,89,0.0,1.0,68,0.00,,,0.00,Wunderground v.1.15,2013-01-18 05:05:00,
2013-01-17 23:14:00,46.0,36.8,30.52,East,89,0.0,0.0,70,0.00,,,0.00,Wunderground v.1.15,2013-01-18 05:14:00,
2013-01-17 23:20:00,45.7,36.8,30.52,East,89,0.0,0.0,71,0.00,,,0.00,Wunderground v.1.15,2013-01-18 05:20:00,
2013-01-17 23:25:00,45.3,36.4,30.52,East,89,0.0,1.0,71,0.00,,,0.00,Wunderground v.1.15,2013-01-18 05:25:00,
2013-01-17 23:35:00,45.1,36.6,30.52,East,89,0.0,0.0,72,0.00,,,0.00,Wunderground v.1.15,2013-01-18 05:35:00,
2013-01-17 23:39:00,45.0,36.5,30.52,East,89,0.0,0.0,72,0.00,,,0.00,Wunderground v.1.15,2013-01-18 05:39:00,
2013-01-17 23:50:00,44.8,36.3,30.52,East,89,0.0,0.0,72,0.00,,,0.00,Wunderground v.1.15,2013-01-18 05:50:00,